Lexington, KY

8:07 PM EST on February 22, 2018 (GMT -0500)
Blue Grass

Weather History for KLEX - October, 2010

Change the Weather History Date:

Saturday, October 23, 2010

  Actual Average Record
Temperature  
Mean Temperature 64 °F 55 °F  
Max Temperature 80 °F 65 °F 84 °F (1963)
Min Temperature 48 °F 45 °F 26 °F (1997)
Degree Days  
Heating Degree Days 1 11  
Month to date heating degree days 141 176  
Since 1 July heating degree days 170 230  
Cooling Degree Days 0 0  
Month to date cooling degree days 12 23  
Year to date cooling degree days 1577 1186  
Growing Degree Days 14 (Base 50)    
Moisture  
Dew Point 29 °F    
Average Humidity 28    
Maximum Humidity 42    
Minimum Humidity 13    
Precipitation  
Precipitation 0.00 in 0.11 in 4.33 in (2007)
Month to date precipitation 0.24 2.28  
Year to date precipitation 30.09 36.86  
Snow  
Snow 0.00 in 0.00 in 0.20 in (1917)
Month to date snowfall 0.0 0.0  
Since 1 July snowfall 0.0 0.0  
Since 1 September snowfall 0.0 0.0  
Snow Depth 0.00 in    
Sea Level Pressure  
Sea Level Pressure 30.16 in    
Wind  
Wind Speed 9 mph (South)    
Max Wind Speed 16 mph    
Max Gust Speed 23 mph    
Visibility 10 miles    
Events      
T = Trace of Precipitation, MM = Missing Value Source: NWS Daily Summary

Daily Weather History Graph

Daily Weather History Graph

Search for Another Location

Airport or City:

Trip Planner

Search our weather history database for the weather conditions in past years. The results will help you decide how hot, cold, wet, or windy it might be!

Date:

Astronomy

Oct. 23, 2010 Rise Set
Actual Time 7:54 AM EDT 6:50 PM EDT
Civil Twilight 7:28 AM EDT 7:16 PM EDT
Nautical Twilight 6:57 AM EDT 7:47 PM EDT
Astronomical Twilight 6:26 AM EDT 8:18 PM EDT
Moon 6:54 PM EDT 8:32 AM EDT
Length of Visible Light 11h 48m
Length of Day
10h 55m
Full, 100% of the Moon is Illuminated
Oct 23
Full
Oct 30
Last Quarter
Nov 6
New
Nov 13
First Quarter
Nov 21
Full

Hourly Weather History & Observations

Time (EDT) Temp. Dew Point Humidity Pressure Visibility Wind Dir Wind Speed Gust Speed Precip Events Conditions
12:54 AM 48.9 °F 26.1 °F 41% 30.19 in 10.0 mi SSE 8.1 mph - N/A   Clear
1:54 AM 48.9 °F 27.0 °F 43% 30.18 in 10.0 mi SSE 6.9 mph - N/A   Clear
2:54 AM 48.9 °F 27.0 °F 43% 30.20 in 10.0 mi South 5.8 mph - N/A   Clear
3:54 AM 50.0 °F 26.1 °F 39% 30.18 in 10.0 mi SSE 8.1 mph - N/A   Clear
4:54 AM 50.0 °F 26.1 °F 39% 30.18 in 10.0 mi South 6.9 mph - N/A   Clear
5:54 AM 50.0 °F 27.0 °F 41% 30.19 in 10.0 mi South 5.8 mph - N/A   Clear
6:54 AM 51.1 °F 27.0 °F 39% 30.19 in 10.0 mi SSE 8.1 mph - N/A   Clear
7:54 AM 50.0 °F 27.0 °F 41% 30.20 in 10.0 mi SSE 9.2 mph - N/A   Clear
8:54 AM 53.1 °F 28.9 °F 40% 30.21 in 10.0 mi SSE 8.1 mph - N/A   Clear
9:54 AM 59.0 °F 28.9 °F 32% 30.22 in 10.0 mi South 6.9 mph - N/A   Clear
10:54 AM 66.0 °F 27.0 °F 23% 30.22 in 10.0 mi South 8.1 mph - N/A   Clear
11:54 AM 72.0 °F 26.1 °F 18% 30.21 in 10.0 mi SSW 11.5 mph - N/A   Clear
12:54 PM 73.9 °F 26.1 °F 17% 30.18 in 10.0 mi South 9.2 mph - N/A   Clear
1:54 PM 77.0 °F 25.0 °F 15% 30.15 in 10.0 mi South 11.5 mph 21.9 mph N/A   Clear
2:54 PM 78.1 °F 25.0 °F 14% 30.13 in 10.0 mi South 11.5 mph - N/A   Clear
3:54 PM 80.1 °F 25.0 °F 13% 30.12 in 10.0 mi South 13.8 mph - N/A   Clear
4:54 PM 78.1 °F 26.1 °F 15% 30.12 in 10.0 mi South 11.5 mph - N/A   Clear
5:54 PM 75.0 °F 28.0 °F 18% 30.12 in 10.0 mi South 5.8 mph - N/A   Clear
6:54 PM 71.1 °F 30.0 °F 22% 30.11 in 10.0 mi South 6.9 mph - N/A   Clear
7:54 PM 66.9 °F 30.9 °F 26% 30.12 in 10.0 mi South 6.9 mph - N/A   Clear
8:54 PM 66.0 °F 34.0 °F 30% 30.11 in 10.0 mi SSE 9.2 mph - N/A   Clear
9:54 PM 64.0 °F 35.1 °F 34% 30.11 in 10.0 mi South 9.2 mph - N/A   Clear
10:54 PM 64.9 °F 37.0 °F 36% 30.10 in 10.0 mi South 11.5 mph - N/A   Clear
11:54 PM 62.1 °F 37.9 °F 41% 30.10 in 10.0 mi South 10.4 mph - N/A   Clear